period_start,C,m1,H,J0,J1,J2,J3,J4,J5,JA,JB,JC,JD,JJ,JK,JN,#
2017-03-01 00:00:50,0.40,4.10,0.00,19.78,22.82,26.99,14.90,49.35,1035.67,2042.99,2065.09,2243.14,2516.25,599.78,613.68,15.58,0000 0000 0000 0000 000000
2017-03-01 00:05:52,0.41,4.12,0.00,19.80,22.82,26.99,14.98,49.38,1035.66,2042.99,2060.00,2239.84,2512.40,600.00,613.86,15.63,0000 0000 0000 0000 000000
2017-03-01 00:10:53,0.41,4.14,0.00,19.82,22.82,27.00,14.94,49.48,1035.66,2042.98,2054.89,2236.57,2508.55,599.90,613.58,15.68,0000 0000 0000 0000 000000
2017-03-01 00:15:54,0.40,4.16,0.00,19.82,22.83,27.01,14.85,49.43,1035.66,2042.99,2050.00,2233.32,2504.86,599.60,613.40,15.73,0000 0000 0000 0000 000000
2017-03-01 00:20:55,0.40,4.18,0.00,19.84,22.84,27.00,14.99,49.47,1035.66,2042.99,2045.29,2230.12,2501.11,599.78,613.58,15.78,0000 0000 0000 0000 000000
2017-03-01 00:25:56,0.40,4.20,0.00,19.86,22.84,27.02,14.95,49.53,1035.62,2042.99,2040.46,2226.90,2497.50,600.03,613.69,15.83,0000 0000 0000 0000 000000
2017-03-01 00:30:58,0.45,4.22,0.00,19.87,22.84,27.04,14.94,49.59,1035.64,2042.99,2035.21,2223.49,2493.71,599.63,613.29,15.88,0000 0000 0000 0000 000000
2017-03-01 00:35:59,0.72,4.25,0.00,19.89,22.84,27.04,14.93,49.73,1035.66,2042.99,2027.32,2217.89,2487.50,599.74,613.44,15.93,0000 0000 0000 0000 000000
2017-03-01 00:41:00,0.61,4.28,0.00,19.90,22.86,27.05,15.00,49.86,1035.65,2042.99,2019.93,2212.69,2481.63,600.09,613.63,15.99,0000 0000 0000 0000 000000
2017-03-01 00:46:02,0.58,4.31,0.00,19.95,22.87,27.08,14.99,50.06,1035.62,2042.99,2013.32,2208.05,2476.43,600.09,613.60,16.04,0000 0000 0000 0000 000000
2017-03-01 00:51:03,0.49,4.34,0.00,19.95,22.87,27.10,15.00,50.30,1035.61,2042.99,2007.43,2203.88,2471.71,600.07,613.56,16.09,0000 0000 0000 0000 000000
2017-03-01 00:56:04,0.42,4.36,0.00,19.98,22.88,27.11,15.05,50.28,1035.63,2042.98,2002.56,2200.49,2467.79,599.97,613.44,16.14,0000 0000 0000 0000 000000
2017-03-01 01:01:05,0.40,4.38,0.83,20.02,22.89,27.10,14.93,50.21,1035.61,2042.98,1997.93,2197.23,2464.05,600.01,613.29,16.19,0000 0000 0000 0000 000000
2017-03-01 01:06:07,0.46,4.41,1.00,20.05,22.91,27.11,15.01,50.13,1035.54,2042.97,1992.96,2193.77,2460.10,600.15,613.39,16.24,0000 0000 0000 0000 000000
2017-03-01 01:11:08,0.60,4.43,1.00,20.07,22.92,27.13,14.90,50.18,1035.57,2042.96,1986.43,2189.16,2454.86,599.93,613.19,16.29,0000 0000 0000 0000 000000
2017-03-01 01:16:09,0.56,4.46,1.00,20.07,22.93,27.16,14.94,50.24,1035.59,2042.96,1980.10,2184.50,2449.62,600.02,613.25,16.34,0000 0000 0000 0000 000000
2017-03-01 01:21:10,0.56,4.49,1.00,20.10,22.94,27.17,14.94,50.27,1035.64,2042.86,1973.96,2180.01,2444.54,599.83,613.11,16.39,0000 0000 0000 0000 000000
2017-03-01 01:26:11,0.53,4.52,1.00,20.13,22.96,27.19,14.96,50.17,1035.62,2042.51,1967.57,2175.43,2439.31,599.87,612.94,16.44,0000 0000 0000 0000 000000
2017-03-01 01:31:12,0.54,4.54,1.00,20.18,22.98,27.21,15.00,50.02,1035.62,2042.25,1961.32,2170.95,2434.21,599.87,612.89,16.49,0000 0000 0000 0000 000000
2017-03-01 01:36:13,0.51,4.57,1.00,20.21,22.99,27.22,14.87,49.90,1035.59,2042.06,1955.39,2166.64,2429.43,599.63,612.62,16.54,0000 0000 0000 0000 000000
2017-03-01 01:41:14,0.49,4.60,1.00,20.22,23.02,27.26,14.92,49.87,1035.43,2042.03,1949.93,2162.88,2425.17,599.87,612.71,16.59,0000 0000 0000 0000 000000
2017-03-01 01:46:15,0.63,4.63,1.00,20.23,23.03,27.26,14.95,49.94,1035.52,2042.00,1943.30,2158.26,2419.99,600.02,612.85,16.64,0000 0000 0000 0000 000000
2017-03-01 01:51:16,0.66,4.66,1.00,20.27,23.05,27.29,14.92,49.88,1035.56,2042.00,1936.04,2153.24,2414.34,599.82,612.57,16.69,0000 0000 0000 0000 000000
2017-03-01 01:56:17,0.65,4.69,1.00,20.30,23.07,27.32,14.98,50.01,1035.47,2042.00,1928.79,2148.31,2408.81,600.27,612.91,16.74,0000 0000 0000 0000 000000
2017-03-01 02:01:18,0.66,4.72,1.00,20.31,23.09,27.33,14.95,50.17,1035.33,2042.00,1921.50,2143.30,2403.27,600.09,612.67,16.79,0000 0000 0000 0000 000000
2017-03-01 02:06:20,0.67,4.76,1.00,20.33,23.11,27.34,14.93,50.33,1035.40,2041.99,1914.31,2138.21,2397.60,600.16,612.79,16.84,0000 0000 0000 0000 000000
2017-03-01 02:11:21,0.66,4.79,1.00,20.36,23.13,27.37,14.95,50.19,1035.45,2041.98,1907.34,2133.13,2391.90,600.09,612.68,16.89,0000 0000 0000 0000 000000
2017-03-01 02:16:22,0.62,4.82,1.00,20.38,23.15,27.40,14.90,50.04,1035.26,2041.98,1900.80,2128.28,2386.40,599.64,612.02,16.94,0000 0000 0000 0000 000000
2017-03-01 02:21:23,0.58,4.85,1.00,20.42,23.18,27.43,14.97,50.08,1035.36,2041.93,1894.65,2123.78,2381.35,600.13,612.43,16.99,0000 0000 0000 0000 000000
2017-03-01 02:26:24,0.46,4.88,1.00,20.45,23.20,27.45,14.91,50.08,1035.33,2041.67,1889.12,2119.87,2376.86,599.95,612.09,17.04,0000 0000 0000 0000 000000
2017-03-01 02:31:26,0.45,4.90,1.00,20.48,23.23,27.46,14.95,50.07,1035.21,2041.30,1884.04,2116.24,2372.76,600.30,612.38,17.09,0000 0000 0000 0000 000000
2017-03-01 02:36:27,0.44,4.92,1.00,20.51,23.25,27.49,14.94,50.06,1035.20,2041.08,1879.12,2112.71,2368.77,599.82,611.99,17.14,0000 0000 0000 0000 000000
2017-03-01 02:41:28,0.45,4.95,1.00,20.51,23.27,27.52,14.91,49.97,1035.20,2041.02,1874.13,2109.50,2365.07,600.06,612.13,17.19,0000 0000 0000 0000 000000
2017-03-01 02:46:30,0.46,4.97,1.00,20.53,23.30,27.54,15.00,50.05,1035.18,2041.00,1869.07,2106.12,2361.25,600.26,612.23,17.24,0000 0000 0000 0000 000000
2017-03-01 02:51:31,0.46,4.99,1.00,20.57,23.32,27.55,14.94,50.05,1035.18,2041.00,1864.29,2102.71,2357.40,600.02,611.94,17.29,0000 0000 0000 0000 000000
2017-03-01 02:56:32,0.48,5.02,1.00,20.60,23.35,27.58,14.99,50.17,1035.18,2041.00,1859.33,2099.28,2353.57,600.10,611.97,17.34,0000 0000 0000 0000 000000
2017-03-01 03:01:34,0.46,5.04,0.07,20.64,23.37,27.60,14.80,50.43,1035.17,2041.00,1854.58,2095.90,2349.73,599.78,611.65,17.39,0000 0000 0000 0000 000000
2017-03-01 03:06:35,0.39,5.06,0.00,20.64,23.39,27.62,14.97,50.41,1035.17,2040.97,1850.56,2092.86,2346.20,599.91,611.75,17.44,0000 0000 0000 0000 000000
2017-03-01 03:11:37,0.34,5.08,0.00,20.68,23.42,27.65,14.88,50.23,1035.17,2040.97,1847.06,2090.29,2343.20,599.81,611.40,17.49,0000 0000 0000 0000 000000
2017-03-01 03:16:38,0.29,5.10,0.00,20.73,23.45,27.68,14.96,50.33,1035.17,2040.90,1843.83,2088.03,2340.59,599.96,611.54,17.54,0000 0000 0000 0000 000000
2017-03-01 03:21:39,0.33,5.11,0.00,20.75,23.48,27.70,14.90,50.38,1035.17,2040.44,1839.83,2085.37,2337.56,599.84,611.41,17.59,0000 0000 0000 0000 000000
2017-03-01 03:26:41,0.37,5.13,0.00,20.75,23.50,27.72,14.85,50.41,1035.17,2040.12,1835.73,2082.52,2334.27,600.05,611.57,17.64,0000 0000 0000 0000 000000
2017-03-01 03:31:42,0.27,5.15,0.00,20.78,23.53,27.77,14.88,50.27,1035.17,2040.06,1832.77,2080.35,2331.68,599.77,611.31,17.69,0000 0000 0000 0000 000000
2017-03-01 03:36:43,0.21,5.16,0.00,20.82,23.56,27.79,14.89,50.22,1035.17,2040.03,1830.53,2078.78,2329.86,600.02,611.47,17.74,0000 0000 0000 0000 000000
2017-03-01 03:41:44,0.24,5.17,0.00,20.87,23.58,27.81,14.84,50.23,1035.17,2040.00,1827.97,2077.17,2327.95,599.78,611.08,17.79,0000 0000 0000 0000 000000
2017-03-01 03:46:45,0.23,5.18,0.00,20.90,23.61,27.82,14.93,50.21,1035.17,2040.00,1825.54,2075.50,2326.02,599.98,611.19,17.84,0000 0000 0000 0000 000000
2017-03-01 03:51:47,0.21,5.19,0.00,20.93,23.64,27.86,14.97,50.31,1035.17,2040.00,1823.29,2073.96,2324.21,600.19,611.42,17.89,0000 0000 0000 0000 000000
2017-03-01 03:56:48,0.22,5.21,0.00,20.96,23.67,27.91,14.95,50.55,1035.15,2039.99,1821.13,2072.42,2322.36,599.93,611.13,17.94,0000 0000 0000 0000 000000
2017-03-01 04:01:49,0.22,5.22,0.00,20.98,23.70,27.93,14.95,50.35,1034.97,2039.95,1818.78,2070.84,2320.53,600.16,611.20,17.99,0000 0000 0000 0000 000000
2017-03-01 04:06:50,0.17,5.23,0.00,21.02,23.73,27.96,14.97,50.31,1034.90,2039.76,1816.59,2069.47,2318.82,600.12,610.95,18.04,0000 0000 0000 0000 000000
2017-03-01 04:11:52,0.14,5.23,0.00,21.07,23.76,27.95,14.89,50.27,1034.99,2039.40,1814.66,2068.06,2317.23,599.81,610.67,18.09,0000 0000 0000 0000 000000
2017-03-01 04:16:53,0.18,5.24,0.00,21.09,23.80,27.99,14.93,50.28,1035.11,2039.12,1812.63,2066.68,2315.55,599.87,610.70,18.14,0000 0000 0000 0000 000000
2017-03-01 04:21:55,0.20,5.25,0.00,21.11,23.83,28.00,14.89,50.35,1035.13,2039.01,1810.46,2065.23,2313.77,600.14,611.00,18.19,0000 0000 0000 0000 000000
2017-03-01 04:26:56,0.23,5.26,0.00,21.17,23.87,28.05,14.90,50.38,1035.11,2039.00,1808.31,2063.69,2311.94,600.12,610.72,18.24,0000 0000 0000 0000 000000
2017-03-01 04:31:58,0.25,5.28,0.00,21.19,23.90,28.09,14.94,50.32,1035.09,2038.99,1805.82,2061.93,2309.83,600.13,610.63,18.29,0000 0000 0000 0000 000000
2017-03-01 04:36:59,0.25,5.29,0.00,21.20,23.93,28.12,14.98,50.27,1035.15,2038.96,1803.34,2060.05,2307.72,600.12,610.75,18.34,0000 0000 0000 0000 000000
2017-03-01 04:42:00,0.20,5.30,0.00,21.24,23.96,28.14,14.92,50.30,1035.17,2038.71,1800.98,2058.41,2305.74,600.15,610.75,18.39,0000 0000 0000 0000 000000
2017-03-01 04:47:02,0.18,5.31,0.00,21.28,24.00,28.18,14.92,50.28,1035.17,2038.14,1798.46,2056.61,2303.67,599.99,610.40,18.44,0000 0000 0000 0000 000000
2017-03-01 04:52:03,0.27,5.32,0.00,21.28,24.03,28.21,14.86,50.38,1035.17,2038.01,1795.74,2054.69,2301.49,599.62,610.07,18.49,0000 0000 0000 0000 000000
2017-03-01 04:57:04,0.29,5.34,0.00,21.32,24.06,28.25,14.87,50.17,1035.17,2038.00,1792.87,2052.62,2299.14,599.98,610.37,18.54,0000 0000 0000 0000 000000
2017-03-01 05:02:06,0.28,5.35,0.00,21.36,24.10,28.27,14.85,50.18,1035.17,2038.00,1790.21,2050.68,2296.80,599.88,610.18,18.59,0000 0000 0000 0000 000000
2017-03-01 05:07:07,0.31,5.37,0.00,21.37,24.13,28.31,14.85,50.18,1035.17,2037.97,1787.25,2048.55,2294.39,600.08,610.38,18.64,0000 0000 0000 0000 000000
2017-03-01 05:12:08,0.31,5.38,0.00,21.41,24.16,28.34,14.82,50.15,1035.17,2037.96,1784.01,2046.55,2291.80,599.63,609.81,18.69,0000 0000 0000 0000 000000
2017-03-01 05:17:09,0.30,5.40,0.00,21.43,24.19,28.37,14.87,50.21,1035.18,2037.70,1780.74,2044.30,2289.14,599.75,609.83,18.74,0000 0000 0000 0000 000000
2017-03-01 05:22:11,0.31,5.41,0.00,21.44,24.22,28.40,14.88,50.25,1035.20,2037.20,1777.23,2041.76,2286.26,600.01,610.17,18.79,0000 0000 0000 0000 000000
2017-03-01 05:27:12,0.37,5.43,0.00,21.47,24.24,28.42,14.89,50.30,1035.20,2037.03,1773.69,2039.15,2283.25,599.91,610.07,18.84,0000 0000 0000 0000 000000
2017-03-01 05:32:13,0.45,5.45,0.00,21.47,24.27,28.44,14.78,50.21,1035.19,2037.00,1769.50,2035.97,2279.63,599.63,609.69,18.89,0000 0000 0000 0000 000000
2017-03-01 05:37:15,0.49,5.48,0.00,21.48,24.30,28.47,14.83,50.13,1035.17,2037.00,1764.97,2032.58,2275.72,600.19,610.26,18.94,0000 0000 0000 0000 000000
2017-03-01 05:42:16,0.49,5.50,0.00,21.46,24.32,28.51,14.85,50.13,1035.17,2036.99,1760.31,2029.17,2271.84,600.10,610.19,18.99,0000 0000 0000 0000 000000
2017-03-01 05:47:18,0.47,5.53,0.00,21.47,24.35,28.54,14.84,50.16,1035.17,2036.97,1755.68,2025.85,2268.05,599.71,609.73,19.04,0000 0000 0000 0000 000000
2017-03-01 05:52:19,0.45,5.55,0.00,21.47,24.37,28.57,14.85,50.02,1035.17,2036.91,1751.27,2022.75,2264.55,600.00,610.10,19.09,0000 0000 0000 0000 000000
2017-03-01 05:57:20,0.40,5.57,0.00,21.49,24.40,28.58,14.85,50.13,1035.19,2036.47,1746.85,2019.59,2260.92,600.19,610.14,19.14,0000 0000 0000 0000 000000
2017-03-01 06:02:22,0.43,5.59,0.00,21.50,24.42,28.59,14.84,50.13,1035.18,2036.15,1742.56,2016.51,2257.38,599.95,609.96,19.19,0000 0000 0000 0000 000000
2017-03-01 06:07:23,0.45,5.61,0.00,21.55,24.44,28.64,14.86,50.07,1035.18,2036.04,1738.37,2013.39,2253.94,600.26,610.14,19.24,0000 0000 0000 0000 000000
2017-03-01 06:12:24,0.45,5.64,0.00,21.58,24.46,28.64,14.91,50.13,1035.17,2036.01,1734.11,2010.28,2250.44,600.56,610.37,19.29,0000 0000 0000 0000 000000
2017-03-01 06:17:26,0.48,5.66,0.00,21.55,24.48,28.66,14.84,50.13,1035.17,2036.01,1730.01,2007.12,2246.82,599.78,609.71,19.34,0000 0000 0000 0000 000000
2017-03-01 06:22:27,0.50,5.68,0.00,21.59,24.51,28.67,14.85,50.15,1035.17,2036.00,1725.54,2003.50,2242.71,599.96,609.82,19.39,0000 0000 0000 0000 000000
2017-03-01 06:27:28,0.47,5.71,0.00,21.59,24.52,28.70,14.86,50.17,1035.17,2036.00,1721.22,2000.35,2239.24,600.25,610.17,19.44,0000 0000 0000 0000 000000
2017-03-01 06:32:29,0.45,5.73,0.00,21.59,24.55,28.71,14.84,50.27,1035.17,2035.99,1717.00,1997.29,2235.90,599.87,609.73,19.49,0000 0000 0000 0000 000000
2017-03-01 06:37:30,0.41,5.75,0.00,21.62,24.57,28.74,14.86,50.21,1035.17,2035.98,1713.18,1994.44,2232.65,600.05,609.89,19.54,0000 0000 0000 0000 000000
2017-03-01 06:42:32,0.36,5.77,0.00,21.60,24.59,28.74,14.85,50.25,1035.17,2035.92,1709.83,1991.86,2229.65,600.02,609.83,19.59,0000 0000 0000 0000 000000
2017-03-01 06:47:33,0.35,5.79,0.00,21.62,24.60,28.77,14.91,50.19,1035.12,2035.69,1706.30,1989.27,2226.69,600.34,610.06,19.64,0000 0000 0000 0000 000000
2017-03-01 06:52:34,0.34,5.81,0.00,21.65,24.62,28.79,14.85,50.27,1035.11,2035.32,1703.02,1986.77,2223.81,600.25,609.91,19.69,0000 0000 0000 0000 000000
2017-03-01 06:57:36,0.46,5.83,0.00,21.65,24.64,28.80,14.89,50.23,1035.16,2035.08,1698.93,1983.76,2220.32,599.77,609.44,19.75,0000 0000 0000 0000 000000
2017-03-01 07:02:37,0.58,5.86,0.00,21.68,24.65,28.80,14.86,50.27,1035.14,2035.00,1693.72,1980.05,2215.97,599.83,609.39,19.80,0000 0000 0000 0000 000000
2017-03-01 07:07:38,0.63,5.89,0.00,21.67,24.67,28.82,14.87,50.11,1035.08,2035.00,1688.05,1975.96,2211.33,600.25,609.94,19.85,0000 0000 0000 0000 000000
2017-03-01 07:12:39,0.63,5.92,0.00,21.66,24.67,28.82,14.85,50.26,1035.04,2035.00,1682.51,1971.85,2206.68,600.00,609.60,19.90,0000 0000 0000 0000 000000
2017-03-01 07:17:41,0.80,5.95,0.00,21.68,24.69,28.83,14.91,50.31,1035.13,2035.00,1675.75,1966.92,2201.09,600.02,609.60,19.95,0000 0000 0000 0000 000000
2017-03-01 07:22:42,0.76,5.99,0.00,21.66,24.70,28.84,14.90,50.30,1035.15,2034.98,1668.86,1961.93,2195.49,599.98,609.68,20.00,0000 0000 0000 0000 000000
2017-03-01 07:27:43,0.74,6.03,0.17,21.67,24.70,28.85,14.90,50.19,1035.16,2034.98,1662.35,1957.17,2190.13,599.70,609.30,20.05,0000 0000 0000 0000 000000
2017-03-01 07:32:45,0.75,6.07,1.00,21.70,24.72,28.88,14.93,50.17,1035.17,2034.97,1655.84,1952.49,2184.89,600.39,609.98,20.10,0000 0000 0000 0000 000000
2017-03-01 07:37:46,0.69,6.11,1.00,21.69,24.72,28.87,14.89,50.25,1035.17,2034.97,1649.85,1947.93,2179.73,599.95,609.57,20.15,0000 0000 0000 0000 000000
2017-03-01 07:42:47,0.67,6.14,1.00,21.69,24.72,28.87,14.86,50.36,1035.17,2034.95,1643.96,1943.54,2174.80,599.80,609.52,20.20,0000 0000 0000 0000 000000
2017-03-01 07:47:48,0.52,6.17,1.00,21.70,24.73,28.88,14.89,50.15,1035.17,2034.78,1638.97,1939.93,2170.74,600.33,609.92,20.25,0000 0000 0000 0000 000000
2017-03-01 07:52:50,0.44,6.19,1.00,21.68,24.74,28.86,14.85,50.16,1035.17,2034.62,1634.69,1936.85,2167.25,599.83,609.55,20.30,0000 0000 0000 0000 000000
2017-03-01 07:57:51,0.43,6.21,1.00,21.67,24.75,28.86,14.90,50.21,1035.17,2034.33,1630.79,1934.01,2164.07,600.14,609.82,20.35,0000 0000 0000 0000 000000
2017-03-01 08:02:53,0.42,6.24,1.00,21.67,24.75,28.86,14.88,50.17,1035.19,2034.23,1626.93,1931.29,2160.96,599.74,609.42,20.40,0000 0000 0000 0000 000000
2017-03-01 08:07:54,0.33,6.26,1.00,21.66,24.75,28.85,14.92,50.13,1035.21,2034.16,1623.75,1929.07,2158.43,599.90,609.58,20.45,0000 0000 0000 0000 000000
2017-03-01 08:12:55,0.25,6.27,1.00,21.65,24.75,28.85,14.90,50.11,1035.33,2034.09,1621.28,1927.41,2156.51,599.91,609.83,20.50,0000 0000 0000 0000 000000
2017-03-01 08:17:57,0.19,6.28,1.00,21.66,24.75,28.84,14.87,50.00,1035.41,2034.16,1619.54,1926.38,2155.30,599.72,609.54,20.55,0000 0000 0000 0000 000000
2017-03-01 08:22:58,0.16,6.29,1.00,21.63,24.74,28.85,14.88,50.00,1035.35,2034.09,1617.85,1925.37,2154.09,600.13,609.82,20.60,0000 0000 0000 0000 000000
2017-03-01 08:27:59,0.18,6.30,0.77,21.63,24.73,28.83,14.82,49.98,1035.36,2034.15,1616.27,1924.41,2152.89,599.90,609.73,20.65,0000 0000 0000 0000 000000
2017-03-01 08:33:01,0.19,6.31,0.00,21.62,24.72,28.81,14.87,50.06,1035.25,2034.10,1614.40,1923.26,2151.58,600.05,609.87,20.70,0000 0000 0000 0000 000000
2017-03-01 08:38:02,0.23,6.32,0.00,21.62,24.72,28.82,14.87,50.08,1035.27,2034.08,1612.36,1921.83,2149.85,599.94,609.75,20.75,0000 0000 0000 0000 000000
2017-03-01 08:43:04,0.50,6.34,0.00,21.60,24.72,28.81,14.85,49.97,1035.41,2034.06,1608.73,1919.14,2146.69,599.96,609.89,20.80,0000 0000 0000 0000 000000
2017-03-01 08:48:05,0.57,6.37,0.00,21.62,24.72,28.79,14.87,49.99,1035.57,2034.04,1604.01,1915.77,2142.79,600.04,609.92,20.85,0000 0000 0000 0000 000000
2017-03-01 08:53:06,0.57,6.40,0.00,21.58,24.71,28.81,14.81,49.98,1035.62,2034.08,1599.15,1912.34,2138.92,599.63,609.82,20.90,0000 0000 0000 0000 000000
2017-03-01 08:58:08,0.58,6.43,0.00,21.57,24.70,28.77,14.88,49.97,1035.66,2034.06,1594.23,1908.85,2134.98,599.83,609.91,20.95,0000 0000 0000 0000 000000
2017-03-01 09:03:09,0.57,6.46,0.00,21.56,24.70,28.77,14.91,49.98,1035.65,2034.06,1589.34,1905.38,2131.13,599.84,610.00,21.00,0000 0000 0000 0000 000000
2017-03-01 09:08:10,0.54,6.48,0.00,21.53,24.70,28.76,14.85,49.90,1035.62,2034.05,1584.75,1902.12,2127.44,599.69,609.89,21.05,0000 0000 0000 0000 000000
2017-03-01 09:13:12,0.53,6.51,0.00,21.52,24.68,28.77,14.93,49.96,1035.42,2034.09,1580.27,1898.97,2123.93,600.09,610.20,21.10,0000 0000 0000 0000 000000
2017-03-01 09:18:13,0.57,6.54,0.00,21.52,24.67,28.75,14.94,49.92,1035.27,2034.13,1575.73,1895.72,2120.30,600.16,610.19,21.15,0000 0000 0000 0000 000000
2017-03-01 09:23:14,0.57,6.57,0.00,21.49,24.67,28.75,14.96,49.97,1035.20,2034.21,1571.17,1892.50,2116.64,600.35,610.31,21.20,0000 0000 0000 0000 000000
2017-03-01 09:28:16,0.55,6.60,0.27,21.50,24.67,28.74,14.83,49.89,1035.23,2034.30,1566.66,1889.26,2113.02,599.81,609.95,21.25,0000 0000 0000 0000 000000
2017-03-01 09:33:17,0.58,6.62,1.00,21.52,24.65,28.74,14.93,49.92,1035.18,2034.15,1561.90,1885.77,2109.30,599.94,609.87,21.30,0000 0000 0000 0000 000000
2017-03-01 09:38:18,0.69,6.66,1.00,21.47,24.65,28.71,14.91,49.92,1035.18,2034.18,1556.48,1881.91,2104.96,600.07,610.12,21.35,0000 0000 0000 0000 000000
2017-03-01 09:43:19,0.76,6.69,1.00,21.46,24.65,28.69,14.97,50.02,1035.21,2034.18,1550.30,1877.59,2100.19,600.16,610.19,21.40,0000 0000 0000 0000 000000
2017-03-01 09:48:21,0.74,6.73,1.00,21.47,24.63,28.70,14.88,50.04,1035.19,2034.22,1544.11,1873.28,2095.37,599.59,609.61,21.45,0000 0000 0000 0000 000000
2017-03-01 09:53:22,0.81,6.77,1.00,21.43,24.62,28.68,14.92,50.06,1035.18,2034.32,1537.83,1868.88,2090.43,600.16,610.14,21.50,0000 0000 0000 0000 000000
2017-03-01 09:58:23,0.77,6.81,1.00,21.40,24.62,28.65,14.96,50.08,1035.19,2034.31,1531.50,1864.36,2085.45,600.20,610.42,21.55,0000 0000 0000 0000 000000
2017-03-01 10:03:24,0.79,6.85,1.00,21.42,24.60,28.66,14.88,49.96,1035.19,2034.31,1525.18,1859.93,2080.50,600.18,610.39,21.60,0000 0000 0000 0000 000000
2017-03-01 10:08:26,0.76,6.89,1.00,21.37,24.60,28.63,14.92,50.02,1035.18,2034.66,1519.29,1855.87,2075.87,600.23,610.61,21.65,0000 0000 0000 0000 000000
2017-03-01 10:13:28,0.63,6.92,1.00,21.37,24.59,28.60,14.92,50.08,1035.20,2034.61,1514.08,1852.24,2071.64,600.15,610.50,21.70,0000 0000 0000 0000 000000
2017-03-01 10:18:29,0.53,6.95,1.00,21.38,24.57,28.62,14.91,50.13,1035.19,2034.36,1509.64,1848.98,2067.94,599.99,610.29,21.75,0000 0000 0000 0000 000000
2017-03-01 10:23:30,0.56,6.98,1.00,21.32,24.57,28.59,14.92,50.01,1035.18,2034.67,1505.50,1846.01,2064.59,600.34,610.77,21.80,0000 0000 0000 0000 000000
2017-03-01 10:28:31,0.53,7.01,1.00,21.31,24.55,28.59,14.83,50.02,1035.17,2034.62,1501.32,1843.03,2061.25,599.95,610.26,21.85,0000 0000 0000 0000 000000
2017-03-01 10:33:33,0.56,7.03,1.00,21.31,24.55,28.57,14.85,50.02,1035.17,2034.79,1497.06,1840.13,2057.97,599.80,610.21,21.90,0000 0000 0000 0000 000000
2017-03-01 10:38:34,0.53,7.06,1.00,21.26,24.52,28.54,14.88,50.06,1035.17,2034.88,1492.93,1837.23,2054.73,600.22,610.73,21.95,0000 0000 0000 0000 000000
2017-03-01 10:43:35,0.50,7.09,1.00,21.25,24.52,28.53,14.87,50.02,1035.17,2034.94,1488.98,1834.45,2051.63,599.85,610.31,22.00,0000 0000 0000 0000 000000
2017-03-01 10:48:37,0.45,7.11,1.00,21.24,24.50,28.51,14.85,50.02,1035.17,2034.97,1485.47,1831.99,2048.84,599.93,610.52,22.05,0000 0000 0000 0000 000000
2017-03-01 10:53:38,0.39,7.13,1.00,21.18,24.49,28.52,14.92,49.98,1035.17,2034.98,1482.37,1829.71,2046.49,600.02,610.75,22.10,0000 0000 0000 0000 000000
2017-03-01 10:58:39,0.46,7.15,0.67,21.17,24.47,28.48,14.88,49.98,1035.14,2034.97,1478.83,1827.30,2043.88,599.74,610.42,22.15,0000 0000 0000 0000 000000
2017-03-01 11:03:40,0.49,7.18,0.00,21.16,24.46,28.47,15.02,49.95,1035.14,2034.98,1475.01,1824.74,2041.04,600.41,611.12,22.20,0000 0000 0000 0000 000000
2017-03-01 11:08:41,0.44,7.20,0.00,21.12,24.45,28.46,14.93,50.00,1035.16,2034.99,1471.45,1822.22,2038.29,600.22,611.07,22.25,0000 0000 0000 0000 000000
2017-03-01 11:13:42,0.42,7.22,0.00,21.12,24.43,28.40,14.96,50.06,1035.16,2034.99,1468.24,1819.93,2035.72,600.10,610.89,22.30,0000 0000 0000 0000 000000
2017-03-01 11:18:44,0.32,7.24,0.00,21.11,24.41,28.40,14.94,50.00,1035.11,2034.99,1465.78,1818.04,2033.51,600.17,610.96,22.35,0000 0000 0000 0000 000000
2017-03-01 11:23:45,0.31,7.26,0.00,21.09,24.40,28.37,14.92,50.06,1034.96,2035.00,1463.39,1816.38,2031.60,599.74,610.33,22.40,0000 0000 0000 0000 000000
2017-03-01 11:28:46,0.29,7.27,0.00,21.07,24.38,28.36,14.92,50.08,1034.71,2035.00,1461.18,1814.80,2029.77,600.00,610.57,22.45,0000 0000 0000 0000 000000
2017-03-01 11:33:47,0.27,7.29,0.00,21.05,24.37,28.36,14.89,50.02,1034.69,2035.01,1459.13,1813.39,2028.05,599.74,610.38,22.50,0000 0000 0000 0000 000000
2017-03-01 11:38:49,0.26,7.30,0.00,21.02,24.35,28.34,14.93,50.02,1034.69,2035.02,1457.07,1811.98,2026.53,599.88,610.43,22.55,0000 0000 0000 0000 000000
2017-03-01 11:43:50,0.27,7.31,0.00,20.97,24.33,28.27,14.93,49.99,1034.68,2035.02,1455.10,1810.62,2024.93,600.00,610.89,22.60,0000 0000 0000 0000 000000
2017-03-01 11:48:51,0.26,7.33,0.00,20.98,24.32,28.29,14.95,50.01,1034.69,2035.03,1453.06,1809.30,2023.41,600.03,610.88,22.65,0000 0000 0000 0000 000000
2017-03-01 11:53:52,0.26,7.34,0.00,20.99,24.30,28.28,14.98,49.95,1034.69,2035.05,1451.03,1807.89,2021.76,600.16,610.93,22.70,0000 0000 0000 0000 000000
2017-03-01 11:58:54,0.26,7.35,0.00,20.92,24.28,28.23,15.01,50.03,1034.68,2035.08,1449.13,1806.58,2020.26,600.31,611.23,22.75,0000 0000 0000 0000 000000
2017-03-01 12:03:55,0.27,7.37,0.00,20.91,24.27,28.22,14.95,50.08,1034.68,2035.21,1447.21,1805.32,2018.75,600.30,611.26,22.80,0000 0000 0000 0000 000000
2017-03-01 12:08:57,0.29,7.38,0.00,20.90,24.25,28.21,14.86,50.12,1034.63,2035.63,1445.30,1804.03,2017.37,600.06,611.13,22.85,0000 0000 0000 0000 000000
2017-03-01 12:13:58,0.27,7.40,0.00,20.86,24.23,28.19,14.91,50.14,1034.54,2035.82,1443.46,1802.78,2015.91,599.76,610.79,22.90,0000 0000 0000 0000 000000
2017-03-01 12:18:59,0.27,7.41,0.00,20.87,24.21,28.15,14.87,50.12,1034.59,2035.94,1441.60,1801.53,2014.39,599.88,610.79,22.95,0000 0000 0000 0000 000000
2017-03-01 12:24:00,0.24,7.42,0.00,20.86,24.20,28.14,14.83,50.13,1034.61,2035.95,1439.67,1800.23,2012.88,599.81,610.81,23.00,0000 0000 0000 0000 000000
2017-03-01 12:29:01,0.25,7.44,0.00,20.83,24.17,28.14,14.90,50.12,1034.47,2035.97,1437.73,1798.94,2011.49,599.89,610.87,23.05,0000 0000 0000 0000 000000
2017-03-01 12:34:03,0.26,7.45,0.00,20.81,24.16,28.11,14.97,50.17,1034.49,2035.98,1435.85,1797.62,2009.90,600.09,611.23,23.10,0000 0000 0000 0000 000000
2017-03-01 12:39:04,0.24,7.46,0.00,20.78,24.14,28.08,14.98,50.25,1034.49,2035.99,1434.01,1796.37,2008.37,600.37,611.48,23.15,0000 0000 0000 0000 000000
2017-03-01 12:44:05,0.25,7.47,0.00,20.76,24.12,28.05,14.94,50.27,1034.50,2035.99,1432.16,1794.97,2006.77,599.98,611.16,23.20,0000 0000 0000 0000 000000
2017-03-01 12:49:06,0.26,7.49,0.00,20.76,24.10,28.04,14.98,50.16,1034.40,2035.99,1430.22,1793.68,2005.28,600.04,611.16,23.25,0000 0000 0000 0000 000000
2017-03-01 12:54:08,0.27,7.50,0.00,20.74,24.08,28.03,14.95,50.14,1034.24,2035.99,1428.20,1792.43,2003.72,599.91,611.11,23.31,0000 0000 0000 0000 000000